QPF
0.00 0.00 0.00 0.00 0.00 0.00 0.00 -0.00 0.00 0.00 0.00 0.00 0.00 -0.00 0.00 0.00 0.00 0.00 0.00 0.00 0.01 0.14 0.11 0.20 0.23 0.32 0.36 0.32 0.65 0.54 0.32 0.30 0.47 0.34 0.32 0.43 0.49 0.35 0.53 0.89 0.48 0.61 0.53 0.35 0.41 0.35 0.45 0.17 0.09 0.00 0.00 0.00 0.00 0.00 0.00 0.00 0.00 0.00 0.00 0.00 0.01 0.01 0.00
0.00 0.00 0.00 0.00 -0.00 0.00 0.00 -0.00 -0.00 0.00 -0.00 -0.00 0.00 -0.00 0.00 0.00 0.00 0.00 0.00 0.00 0.02 0.30 0.25 0.40 0.22 0.45 0.49 0.51 0.47 0.49 0.64 0.76 0.42 0.24 0.44 0.54 0.30 0.34 0.75 0.87 0.74 0.49 0.26 0.15 0.23 0.24 0.28 0.32 0.13 0.07 0.00 0.00 0.00 0.00 0.00 0.00 0.00 0.00 0.00 0.00 0.00 0.00 0.01
-0.00 0.00 0.00 0.00 0.00 0.00 0.00 0.00 0.00 0.00 0.00 -0.00 0.00 0.00 0.00 0.00 -0.00 0.00 0.00 0.01 0.02 0.30 0.55 0.38 0.41 0.43 0.36 0.26 0.51 0.36 0.79 0.33 0.20 0.12 0.22 0.39 0.48 0.46 0.54 0.57 0.55 0.16 0.27 0.07 0.11 0.40 0.32 0.63 0.02 0.01 0.00 0.00 0.01 0.00 0.00 0.00 0.00 0.00 0.00 0.00 0.00 0.00 0.00
0.00 0.00 0.00 0.00 0.00 0.00 0.00 0.00 0.00 0.00 0.00 0.00 -0.00 0.00 0.00 -0.00 0.00 0.00 0.00 0.00 0.11 0.37 0.53 0.36 0.33 0.36 0.38 0.44 0.39 0.30 0.20 0.23 0.26 0.16 0.29 0.45 0.48 0.56 0.36 0.47 0.26 0.45 0.33 0.18 0.14 0.25 0.20 0.44 0.14 0.24 0.02 0.00 0.00 0.00 0.00 0.00 0.00 0.00 0.00 0.00 0.00 0.00 0.00
0.00 0.00 0.00 0.00 0.00 0.00 0.00 0.00 0.00 0.00 0.00 0.00 0.00 0.00 0.00 0.00 0.00 0.00 0.00 0.00 0.00 0.21 0.15 0.04 0.04 0.17 0.20 0.20 0.23 0.17 0.18 0.16 0.25 0.19 0.35 0.56 0.51 0.66 0.93 0.61 0.62 0.48 0.37 0.30 0.03 0.01 0.03 0.11 0.42 0.30 0.02 0.02 0.01 0.00 0.00 0.00 0.00 0.00 0.00 0.00 0.00 0.00 0.00
0.00 0.00 0.00 0.00 0.00 0.00 0.00 -0.00 0.00 0.00 0.00 0.00 -0.00 0.00 -0.00 0.00 0.00 0.00 0.00 0.00 0.00 0.00 0.04 0.18 0.25 0.27 0.26 0.21 0.16 0.06 0.04 0.17 0.17 0.66 0.40 0.20 0.10 0.27 0.22 0.30 0.72 0.75 0.25 0.02 0.04 0.01 0.01 0.02 0.27 0.26 0.16 0.11 0.01 0.00 0.00 0.00 0.00 0.00 0.00 0.00 0.00 0.00 0.00
0.00 -0.00 0.00 0.00 0.00 0.00 0.00 0.00 0.00 0.00 0.00 0.00 0.00 0.00 0.00 0.00 0.00 0.00 0.00 0.00 0.00 0.00 0.00 0.05 0.36 0.34 0.16 0.15 0.07 0.05 0.02 0.18 0.51 0.34 0.29 0.08 0.08 0.17 0.17 0.33 0.48 0.13 0.02 0.01 0.01 0.00 0.01 0.13 0.41 0.20 0.35 0.06 0.01 0.00 0.00 0.00 0.00 0.00 0.00 0.00 0.00 0.00 0.00
0.00 0.00 0.00 0.00 -0.00 -0.00 0.00 -0.00 -0.00 -0.00 0.00 0.00 -0.00 0.00 0.00 0.00 0.00 0.00 0.00 0.00 -0.00 0.00 0.00 0.01 0.02 0.03 0.21 0.10 0.10 0.03 0.04 0.21 0.25 0.34 0.38 0.24 0.72 0.27 0.27 0.20 0.01 0.01 0.03 0.02 0.01 0.00 0.01 0.01 0.17 0.12 0.21 0.11 0.01 0.01 0.00 0.01 0.00 0.00 0.00 0.00 0.00 0.00 0.00
0.00 0.00 0.00 0.00 0.00 0.00 0.00 0.00 -0.00 0.00 0.00 0.00 -0.00 0.00 -0.00 0.00 0.00 0.00 0.00 0.00 -0.00 -0.00 0.00 0.00 0.00 0.01 0.01 0.01 0.01 0.01 0.02 0.11 0.55 0.25 0.27 0.60 0.84 0.63 0.45 0.07 0.01 0.01 0.01 0.01 0.02 0.01 0.01 0.01 0.02 0.02 0.06 0.03 0.02 0.03 0.02 0.01 0.01 0.01 0.01 0.00 0.00 0.00 0.00
0.00 0.00 -0.00 0.00 0.00 0.00 0.00 0.00 0.00 0.00 -0.00 0.00 0.00 -0.00 0.00 0.00 0.00 0.00 0.00 0.00 0.00 0.00 0.00 0.00 0.00 0.01 0.02 0.01 0.01 0.03 0.09 0.05 0.33 0.44 0.18 0.44 0.45 0.67 0.22 0.10 0.03 0.01 0.01 0.01 0.01 0.01 0.01 0.04 0.05 0.11 0.17 0.04 0.02 0.02 0.03 0.02 0.02 0.02 0.01 0.01 0.01 0.00 0.00
-0.00 0.00 0.00 0.00 0.00 -0.00 0.00 -0.00 0.00 0.00 -0.00 0.00 0.00 0.00 0.01 0.00 0.00 0.00 0.00 -0.00 0.00 0.00 0.00 -0.00 0.00 0.00 0.01 0.01 0.03 0.04 0.16 0.15 0.39 0.59 0.25 0.67 0.62 0.86 0.52 0.12 0.06 0.04 0.01 0.01 0.01 0.01 0.02 0.01 0.02 0.11 0.13 0.07 0.02 0.02 0.02 0.02 0.02 0.02 0.01 0.01 0.00 0.01 0.00
-0.00 0.00 0.00 0.00 0.00 -0.00 0.00 0.00 0.00 0.00 0.00 0.00 0.00 0.02 0.02 0.00 0.01 0.01 0.00 0.00 0.00 0.00 0.00 0.00 0.00 0.00 0.00 0.03 0.03 0.12 0.10 0.07 0.22 0.32 0.46 0.24 0.32 0.59 0.51 0.18 0.06 0.05 0.03 0.01 0.01 0.02 0.01 0.02 0.15 0.08 0.16 0.12 0.18 0.04 0.02 0.02 0.02 0.01 0.01 0.01 0.00 0.00 0.00
0.00 -0.00 0.00 0.00 0.00 0.00 0.00 0.00 0.00 -0.00 -0.00 0.00 0.00 0.00 0.02 0.02 0.05 0.03 0.01 0.01 0.01 0.00 0.00 0.00 0.00 0.00 0.00 0.00 0.01 0.09 0.21 0.22 0.08 0.06 0.10 0.07 0.19 0.51 0.30 0.03 0.02 0.03 0.03 0.02 0.01 0.01 0.02 0.01 0.09 0.08 0.08 0.13 0.13 0.01 0.01 0.02 0.02 0.02 0.02 0.01 0.01 0.00 0.00
0.00 0.00 0.00 -0.00 0.00 0.00 0.00 0.00 0.00 0.00 -0.00 0.00 0.00 0.00 0.00 0.00 0.02 0.02 0.02 0.01 0.01 0.01 0.01 0.01 0.01 0.01 0.00 0.01 0.02 0.03 0.14 0.12 0.01 0.01 0.01 0.05 0.17 0.30 0.25 0.05 0.02 0.01 0.01 0.01 0.01 0.01 0.01 0.01 0.01 0.08 0.02 0.02 0.02 0.02 0.02 0.02 0.01 0.01 0.01 0.02 0.02 0.01 0.01
0.00 0.00 0.00 0.00 0.00 0.00 -0.00 0.00 -0.00 0.00 -0.00 0.00 0.00 0.00 0.00 0.00 0.00 0.00 0.00 0.01 0.00 0.00 0.00 0.01 0.01 0.01 0.01 0.01 0.08 0.08 0.13 0.08 0.01 0.01 0.02 0.01 0.12 0.14 0.09 0.06 0.01 0.01 0.01 0.01 0.01 0.01 0.01 0.01 0.01 0.01 0.03 0.02 0.02 0.22 0.31 0.11 0.00 0.00 0.01 0.01 0.01 0.01 0.02
0.00 0.00 0.00 0.00 0.00 -0.00 0.00 -0.00 0.00 0.00 0.00 0.00 0.00 0.00 0.00 -0.00 -0.00 0.00 0.00 0.00 0.00 0.00 0.00 0.01 0.00 0.01 0.02 0.01 0.09 0.19 0.07 0.03 0.01 0.01 0.01 0.01 0.03 0.09 0.02 0.00 0.00 0.01 0.01 0.01 0.01 0.01 0.01 0.01 0.03 0.06 0.05 0.05 0.08 0.19 0.15 0.04 0.00 0.00 0.00 0.00 0.00 0.01 0.01
-0.00 0.00 0.00 0.00 0.00 0.00 0.00 0.00 -0.00 0.00 0.00 0.00 0.00 0.00 0.00 -0.00 0.00 0.00 0.00 -0.00 0.00 0.00 0.00 0.00 0.00 0.00 0.01 0.01 0.04 0.10 0.14 0.07 0.08 0.10 0.02 0.01 0.01 0.01 0.01 0.01 0.01 0.01 0.01 0.01 0.01 0.01 0.03 0.01 0.02 0.04 0.02 0.09 0.09 0.06 0.01 0.00 0.00 0.00 0.00 0.00 0.01 0.01 0.02
0.00 0.00 0.00 0.00 0.00 0.00 0.00 0.00 0.00 0.00 0.00 0.00 0.00 0.00 0.00 0.01 0.00 0.00 0.00 0.00 0.00 0.00 0.00 0.00 0.00 0.00 0.00 0.00 0.01 0.02 0.04 0.03 0.03 0.02 0.04 0.04 0.01 0.01 0.01 0.01 0.01 0.01 0.01 0.02 0.01 0.02 0.03 0.03 0.03 0.02 0.02 0.03 0.05 0.04 0.01 0.00 0.00 0.00 0.00 0.00 0.00 0.00 0.01
0.02 -0.00 0.00 0.00 0.00 0.00 -0.00 -0.00 0.00 0.00 0.00 0.00 -0.00 0.00 0.00 0.05 0.02 0.00 -0.00 0.00 0.00 0.00 0.00 0.00 0.00 0.00 0.00 0.00 0.01 0.01 0.02 0.02 0.07 0.05 0.03 0.03 0.07 0.02 0.02 0.02 0.02 0.02 0.02 0.01 0.01 0.02 0.05 0.02 0.02 0.02 0.06 0.02 0.03 0.03 0.01 0.02 0.00 0.00 -0.00 0.00 0.01 0.01 0.03
0.08 0.02 0.02 0.01 0.01 0.00 0.00 0.00 -0.00 -0.00 0.00 0.00 0.00 -0.00 0.05 0.01 -0.00 0.00 0.00 0.00 0.00 0.00 0.00 0.00 0.00 0.00 0.00 0.01 0.01 0.02 0.02 0.02 0.03 0.03 0.03 0.03 0.04 0.03 0.11 0.02 0.01 0.02 0.02 0.03 0.02 0.02 0.02 0.02 0.03 0.02 0.03 0.02 0.03 0.03 0.01 0.03 0.00 0.00 0.00 0.05 0.00 0.00 0.06
0.07 0.00 0.00 0.01 0.00 0.00 0.00 -0.00 0.00 0.00 -0.00 -0.00 0.00 0.00 0.00 0.00 0.00 0.00 0.00 0.00 0.00 0.00 0.00 0.00 0.03 0.01 0.01 0.01 0.01 0.01 0.02 0.03 0.02 0.03 0.05 0.04 0.05 0.08 0.08 0.02 0.01 0.01 0.01 0.02 0.02 0.02 0.02 0.01 0.01 0.02 0.03 0.03 0.02 0.02 0.02 0.01 0.00 -0.00 -0.00 0.00 0.00 0.00 0.02
0.01 0.00 0.00 0.00 0.00 0.00 0.00 -0.00 0.00 0.00 0.00 0.00 0.00 -0.00 0.00 0.00 -0.00 0.00 0.00 0.00 0.00 -0.00 0.00 0.00 0.00 0.01 0.03 0.03 0.01 0.02 0.02 0.06 0.05 0.02 0.05 0.09 0.11 0.07 0.10 0.04 0.03 0.02 0.03 0.02 0.01 0.02 0.05 0.02 0.04 0.02 0.02 0.03 0.05 0.08 0.02 0.02 0.00 0.00 0.00 0.00 0.00 0.00 0.03
-0.00 0.00 0.00 0.00 0.00 -0.00 0.00 -0.00 -0.00 0.00 0.00 -0.00 0.00 0.00 0.00 0.00 0.00 0.00 0.00 0.00 0.00 0.00 0.00 0.00 0.00 0.00 0.00 0.04 0.15 0.03 0.02 0.02 0.02 0.06 0.04 0.06 0.09 0.05 0.03 0.04 0.04 0.03 0.05 0.07 0.02 0.03 0.03 0.04 0.04 0.06 0.04 0.07 0.03 0.04 0.01 0.01 0.00 0.00 0.00 0.00 0.00 0.00 0.02
0.00 0.00 0.00 0.00 0.00 0.00 0.00 0.00 0.00 0.00 0.00 0.00 0.00 0.00 0.00 0.00 0.00 0.00 -0.00 0.00 0.00 0.00 0.00 0.00 0.00 0.00 0.00 0.01 0.03 0.01 0.02 0.03 0.03 0.04 0.19 0.12 0.07 0.05 0.07 0.09 0.17 0.16 0.05 0.06 0.07 0.04 0.02 0.02 0.07 0.03 0.04 0.03 0.03 0.02 0.01 0.00 0.00 0.00 0.00 0.00 0.00 0.00 0.01
0.00 0.00 0.00 0.00 0.00 0.00 0.00 0.00 0.00 0.00 0.00 -0.00 0.00 0.00 0.00 0.00 0.00 0.00 0.00 0.00 0.00 -0.00 0.00 0.00 0.00 0.00 0.00 0.01 0.01 0.02 0.03 0.05 0.06 0.05 0.06 0.11 0.11 0.08 0.07 0.05 0.09 0.05 0.13 0.09 0.06 0.04 0.02 0.01 0.03 0.04 0.02 0.01 0.01 0.00 0.00 0.00 0.00 0.00 0.00 0.00 0.00 0.00 0.01
0.00 0.00 -0.00 0.00 -0.00 0.00 0.00 0.00 0.00 0.00 0.00 0.00 0.00 -0.00 -0.00 -0.00 -0.00 0.00 0.00 0.00 0.00 0.00 0.00 0.00 0.00 0.00 0.00 0.00 0.00 0.01 0.01 0.06 0.08 0.07 0.05 0.02 0.03 0.04 0.06 0.03 0.05 0.11 0.12 0.05 0.11 0.05 0.01 0.02 0.02 0.02 0.02 0.01 0.01 0.01 0.00 0.01 0.01 0.01 0.00 0.00 0.00 0.00 0.00
-0.00 0.00 0.00 0.00 0.00 0.00 -0.00 0.00 0.00 0.00 0.00 0.00 0.00 0.00 0.00 0.00 0.00 0.00 0.00 0.00 -0.00 0.00 -0.00 0.00 0.00 0.00 0.00 0.00 0.01 0.01 0.01 0.02 0.06 0.08 0.06 0.04 0.07 0.04 0.03 0.01 0.03 0.04 0.04 0.08 0.04 0.02 0.02 0.03 0.02 0.04 0.03 0.04 0.04 0.04 0.04 0.02 0.03 0.02 0.00 0.00 0.00 0.00 0.00
0.00 0.00 0.00 0.00 0.00 0.00 0.00 0.00 0.00 -0.00 0.00 0.00 0.00 0.00 0.00 -0.00 0.00 0.00 0.00 0.00 0.00 0.00 0.00 0.00 0.00 0.00 0.00 0.00 0.00 0.00 0.01 0.02 0.04 0.01 0.00 0.00 0.00 0.04 0.04 0.05 0.04 0.02 0.02 0.02 0.04 0.04 0.02 0.02 0.02 0.04 0.05 0.04 0.03 0.03 0.03 0.03 0.01 0.05 0.01 0.00 0.00 0.00 0.00
0.00 -0.00 0.00 0.00 0.00 -0.00 0.00 0.00 0.00 0.00 0.00 0.00 0.00 -0.00 0.00 0.00 0.00 0.00 0.00 0.00 -0.00 -0.00 0.00 0.00 0.00 0.00 0.00 0.00 0.00 0.00 0.00 0.02 0.02 0.01 0.00 0.00 0.00 0.02 0.02 0.06 0.03 0.03 0.05 0.04 0.04 0.07 0.06 0.07 0.06 0.05 0.05 0.03 0.02 0.02 0.02 0.02 0.02 0.00 0.02 0.00 0.00 0.00 0.01
0.00 0.00 0.00 -0.00 0.00 -0.00 0.00 0.00 0.00 0.00 0.00 -0.00 0.00 0.00 0.00 0.00 0.00 0.00 0.00 0.00 0.00 0.00 0.00 0.00 0.00 0.00 0.00 0.00 0.00 0.00 0.01 0.01 0.02 0.02 0.01 0.00 0.00 0.01 0.02 0.04 0.08 0.09 0.09 0.05 0.07 0.14 0.11 0.07 0.16 0.10 0.08 0.04 0.02 0.02 0.02 0.02 0.02 0.01 0.00 0.01 0.00 0.00 0.01
0.00 0.00 0.00 0.00 0.00 0.00 0.00 0.00 -0.00 -0.00 0.00 0.00 0.00 -0.00 0.00 -0.00 0.00 -0.00 0.00 0.00 0.00 0.00 0.00 0.00 0.00 0.00 0.00 -0.00 0.00 0.00 0.01 0.02 0.02 0.02 0.01 0.01 0.01 0.01 0.01 0.02 0.05 0.06 0.08 0.14 0.25 0.17 0.13 0.23 0.28 0.21 0.06 0.07 0.05 0.02 0.02 0.02 0.02 0.03 0.02 0.00 0.00 0.00 0.00
-0.00 0.00 0.00 0.00 0.00 0.00 0.00 0.00 0.00 0.00 0.00 0.00 0.00 0.00 -0.00 -0.00 -0.00 0.00 0.00 0.00 0.00 0.00 0.00 0.00 0.00 0.00 0.00 0.00 0.00 0.00 0.01 0.02 0.03 0.03 0.01 0.02 0.02 0.01 0.02 0.02 0.05 0.05 0.20 0.23 0.13 0.11 0.17 0.11 0.13 0.08 0.16 0.09 0.04 0.03 0.02 0.03 0.02 0.02 0.02 0.00 0.00 0.00 0.00
-0.00 0.00 0.00 0.00 0.00 0.00 0.00 0.00 -0.00 0.00 0.00 0.00 0.00 0.00 0.00 0.00 0.00 0.00 0.00 0.00 0.00 0.00 0.00 0.00 0.00 0.00 0.00 0.00 0.00 0.00 0.00 0.01 0.02 0.03 0.09 0.03 0.02 0.02 0.01 0.01 0.01 0.03 0.02 0.04 0.10 0.06 0.07 0.04 0.05 0.09 0.08 0.06 0.06 0.04 0.03 0.03 0.03 0.02 0.01 0.01 0.01 0.01 0.00
0.00 0.00 -0.00 0.00 0.00 0.00 0.00 0.00 0.00 0.00 0.00 0.00 -0.00 0.00 0.00 0.00 0.00 0.00 0.00 0.00 0.00 0.00 0.01 0.00 0.00 0.00 0.00 0.00 0.00 0.00 0.00 0.00 0.00 0.01 0.02 0.06 0.12 0.02 0.02 0.01 0.02 0.02 0.02 0.03 0.03 0.06 0.04 0.02 0.04 0.02 0.03 0.03 0.02 0.03 0.04 0.03 0.03 0.02 0.01 0.00 0.00 0.00 0.00
-0.00 0.00 0.00 0.00 0.00 0.00 0.00 0.00 0.00 0.00 -0.00 0.00 0.00 -0.00 0.00 0.00 0.00 0.00 0.00 0.00 0.01 0.00 0.01 0.01 0.00 0.02 0.01 0.00 0.00 0.00 0.00 0.00 0.00 0.01 0.02 0.02 0.01 0.01 0.01 0.01 0.00 0.00 0.00 0.00 0.02 0.02 0.07 0.07 0.03 0.03 0.02 0.03 0.03 0.03 0.03 0.02 0.02 0.01 0.00 0.01 0.00 0.01 0.02
0.00 0.00 0.00 0.00 0.00 0.00 0.00 0.00 0.00 0.00 0.00 0.00 0.00 0.00 -0.00 0.00 0.00 0.00 0.00 0.00 0.01 0.01 0.01 0.01 0.02 0.01 0.00 0.00 0.00 0.00 0.00 0.00 0.00 0.01 0.01 0.02 0.01 0.01 0.01 0.00 0.00 0.00 0.00 0.00 -0.00 0.00 0.00 0.00 0.02 0.04 0.09 0.09 0.04 0.03 0.02 0.01 0.01 0.01 0.00 0.00 0.00 0.00 0.00
0.00 0.00 0.00 0.00 0.00 0.00 0.00 0.00 0.00 0.00 0.01 0.00 0.00 0.00 0.00 0.00 0.00 0.00 0.00 0.00 0.00 0.01 0.01 0.01 0.01 0.01 0.00 0.00 0.00 0.00 0.00 0.00 0.00 0.00 0.01 0.01 0.01 0.01 0.00 0.02 0.00 0.00 0.00 0.00 0.00 0.00 0.00 0.00 0.00 0.00 0.00 0.00 0.00 0.00 0.00 0.00 0.00 0.00 0.00 0.00 0.00 0.00 0.01
0.00 0.00 0.00 0.00 0.00 -0.00 0.00 0.01 0.01 0.01 0.01 0.01 0.01 0.01 0.01 0.00 0.00 0.00 0.00 0.01 0.01 0.01 0.01 0.02 0.02 0.01 0.01 0.00 0.00 0.00 0.00 0.00 0.00 0.00 0.01 0.00 0.00 0.01 0.01 0.01 0.01 0.00 0.00 0.00 0.00 0.00 0.00 0.00 0.00 0.00 0.00 0.00 0.00 0.00 0.01 0.00 0.00 0.00 0.00 0.00 0.00 0.00 0.01
MSLP
1011.09 1011.49 1011.65 1011.73 1012.01 1012.05 1012.17 1012.29 1012.21 1012.21 1012.25 1012.21 1012.21 1012.13 1011.97 1011.85 1011.85 1011.85 1011.93 1011.93 1011.97 1012.01 1012.05 1012.29 1012.57 1012.65 1012.81 1012.77 1012.97 1013.25 1013.49 1013.65 1013.65 1013.89 1014.21 1014.61 1014.61 1014.81 1014.93 1015.05 1015.17 1014.77 1014.69 1014.73 1014.65 1014.37 1014.57 1014.69 1014.45 1014.01 1013.93 1014.25 1014.49 1014.73 1014.97 1015.13 1015.37 1015.37 1015.53 1015.69 1015.85 1015.97 1016.09
1011.73 1011.89 1012.01 1011.89 1012.21 1012.33 1012.29 1012.25 1012.21 1012.21 1012.21 1012.21 1012.13 1012.09 1011.85 1011.77 1011.73 1011.73 1011.69 1011.53 1011.57 1011.81 1012.13 1012.49 1012.73 1012.89 1012.85 1012.85 1012.93 1013.29 1013.61 1013.61 1013.53 1013.69 1013.89 1014.25 1014.41 1014.53 1014.65 1014.77 1014.29 1014.53 1014.09 1013.85 1014.09 1014.05 1014.53 1014.85 1014.41 1014.13 1013.81 1014.01 1014.21 1014.45 1014.77 1014.93 1015.09 1015.25 1015.45 1015.65 1015.85 1016.05 1016.13
1012.29 1012.21 1012.25 1012.17 1012.25 1012.37 1012.41 1012.09 1012.09 1012.09 1012.17 1012.09 1012.01 1011.89 1011.81 1011.69 1011.57 1011.57 1011.53 1011.61 1011.97 1012.17 1012.41 1012.61 1012.73 1012.81 1012.85 1012.81 1013.01 1013.17 1013.29 1013.45 1013.53 1013.65 1013.93 1014.05 1014.37 1014.37 1014.29 1014.17 1014.05 1014.01 1013.97 1013.77 1013.97 1014.41 1014.37 1014.37 1013.61 1013.45 1013.53 1013.69 1013.93 1014.25 1014.45 1014.69 1014.89 1015.01 1015.17 1015.45 1015.69 1015.89 1016.17
1012.81 1012.61 1012.45 1012.29 1012.29 1012.17 1012.13 1012.21 1012.13 1011.97 1011.93 1011.93 1011.93 1011.77 1011.77 1011.81 1011.61 1011.45 1011.45 1011.53 1012.01 1012.41 1012.85 1012.85 1012.89 1012.93 1012.97 1013.17 1013.37 1013.49 1013.57 1013.65 1013.69 1013.69 1013.81 1013.89 1013.93 1013.89 1013.81 1013.89 1014.13 1014.05 1013.97 1013.73 1013.57 1013.81 1013.89 1014.53 1014.01 1013.93 1013.57 1013.61 1013.81 1013.93 1014.17 1014.45 1014.57 1014.77 1014.93 1015.29 1015.49 1015.57 1015.89
1012.89 1012.65 1012.57 1012.45 1012.29 1012.37 1012.25 1012.13 1012.17 1012.25 1012.05 1011.93 1011.89 1011.77 1011.69 1011.73 1011.73 1011.53 1011.41 1011.37 1011.61 1012.29 1012.49 1012.81 1012.89 1012.93 1012.93 1013.09 1013.37 1013.49 1013.65 1013.77 1013.81 1013.89 1013.85 1013.69 1013.49 1013.49 1013.65 1014.01 1013.89 1013.77 1013.49 1013.49 1013.57 1013.53 1013.65 1013.85 1014.09 1014.45 1013.57 1013.73 1013.73 1013.85 1014.13 1014.25 1014.41 1014.61 1014.81 1015.09 1015.37 1015.37 1015.61
1013.33 1013.25 1013.13 1012.69 1012.53 1012.45 1012.37 1012.29 1012.21 1012.25 1012.17 1012.13 1012.05 1011.93 1011.85 1011.85 1011.77 1011.85 1011.49 1011.53 1011.77 1011.93 1012.33 1012.65 1012.77 1012.85 1013.13 1013.17 1013.41 1013.57 1013.61 1013.73 1013.77 1013.81 1013.89 1013.69 1013.45 1013.25 1013.49 1013.53 1013.45 1013.49 1013.53 1013.37 1013.41 1013.33 1013.29 1013.45 1013.85 1014.61 1014.21 1013.57 1013.65 1013.73 1013.81 1014.05 1014.17 1014.33 1014.61 1014.89 1015.01 1015.05 1015.21
1013.89 1013.53 1013.29 1012.89 1012.53 1012.53 1012.57 1012.49 1012.29 1012.25 1012.13 1012.09 1012.09 1011.89 1011.85 1011.85 1011.97 1011.85 1011.57 1011.37 1011.45 1012.17 1012.37 1012.81 1012.93 1012.97 1013.05 1013.09 1013.29 1013.45 1013.49 1013.53 1013.53 1013.61 1013.41 1013.37 1013.25 1013.29 1013.17 1013.05 1013.05 1013.17 1013.21 1013.13 1013.21 1013.01 1013.05 1013.69 1014.17 1014.17 1014.69 1013.61 1013.45 1013.57 1013.69 1013.97 1014.05 1014.09 1014.33 1014.77 1014.97 1014.93 1014.97
1014.09 1013.85 1013.25 1012.77 1012.49 1012.49 1012.77 1012.73 1012.37 1012.37 1012.21 1012.17 1012.33 1012.33 1012.29 1012.05 1011.69 1011.81 1011.81 1011.45 1011.21 1011.49 1012.25 1012.61 1012.81 1013.05 1013.33 1013.49 1013.49 1013.45 1013.33 1013.21 1012.97 1012.77 1012.77 1013.05 1013.37 1013.53 1013.21 1012.85 1012.73 1012.77 1012.97 1013.13 1013.09 1013.05 1013.13 1013.09 1013.73 1014.29 1014.49 1013.73 1013.29 1013.37 1013.49 1013.81 1014.05 1013.97 1014.09 1014.53 1014.81 1014.89 1014.69
1014.29 1014.09 1013.81 1013.13 1012.89 1012.93 1012.89 1012.93 1012.89 1012.89 1012.93 1012.85 1012.81 1012.73 1012.57 1012.45 1012.09 1011.69 1011.61 1011.45 1011.33 1011.57 1011.73 1011.73 1012.21 1012.61 1012.93 1013.45 1013.73 1013.73 1013.41 1013.01 1012.61 1012.33 1012.49 1012.77 1012.97 1013.13 1013.09 1012.85 1012.61 1012.57 1012.81 1012.97 1012.97 1012.93 1012.97 1013.09 1013.01 1013.21 1013.37 1013.37 1013.37 1013.53 1013.57 1013.77 1013.97 1013.97 1014.05 1014.25 1014.49 1014.73 1014.53
1014.77 1014.49 1014.13 1013.77 1013.45 1013.33 1013.41 1013.29 1013.17 1013.17 1013.33 1013.29 1013.29 1013.21 1013.01 1012.69 1012.49 1012.21 1011.77 1011.45 1011.29 1011.33 1011.45 1011.57 1011.69 1012.21 1012.69 1013.01 1013.29 1013.41 1013.21 1012.77 1012.41 1012.53 1012.65 1012.81 1012.65 1012.73 1012.77 1012.85 1012.73 1012.49 1012.69 1012.85 1012.85 1012.93 1012.85 1012.93 1013.21 1013.49 1013.77 1013.37 1013.41 1013.49 1013.65 1013.81 1013.89 1013.93 1014.01 1014.17 1014.29 1014.45 1014.53
1015.05 1014.81 1014.53 1014.29 1014.13 1013.93 1013.81 1013.81 1013.89 1013.93 1013.73 1013.61 1013.53 1013.41 1013.37 1013.21 1012.97 1012.61 1012.33 1012.05 1011.85 1011.69 1011.21 1011.41 1011.45 1011.81 1012.29 1012.73 1013.09 1013.21 1013.05 1012.57 1012.65 1013.29 1013.25 1012.97 1012.49 1012.41 1012.57 1012.81 1013.01 1012.85 1012.85 1012.81 1012.85 1012.81 1012.93 1012.97 1013.13 1013.69 1013.81 1013.49 1013.29 1013.29 1013.45 1013.57 1013.65 1013.81 1013.81 1013.77 1013.77 1014.05 1014.17
1015.41 1015.17 1015.05 1014.77 1014.53 1014.33 1014.41 1014.29 1013.97 1013.85 1013.81 1013.73 1013.69 1013.61 1013.61 1013.29 1013.05 1012.77 1012.61 1012.33 1011.93 1012.01 1011.69 1011.73 1011.57 1011.77 1012.17 1012.45 1013.09 1013.33 1012.77 1012.33 1012.49 1012.93 1013.13 1012.97 1012.53 1012.41 1012.49 1012.61 1012.81 1012.97 1013.01 1013.01 1013.01 1012.85 1012.77 1013.01 1013.25 1013.45 1013.89 1013.65 1013.77 1013.01 1012.93 1013.09 1013.25 1013.45 1013.53 1013.49 1013.49 1013.65 1013.85
1015.53 1015.37 1015.17 1015.05 1014.77 1014.49 1014.37 1014.37 1014.33 1014.13 1013.93 1013.81 1013.77 1013.65 1013.53 1013.37 1013.05 1012.89 1012.89 1012.73 1012.41 1012.21 1012.13 1011.97 1011.97 1012.13 1012.25 1012.53 1012.81 1012.97 1012.61 1012.33 1012.37 1012.57 1012.77 1012.69 1012.57 1012.41 1012.45 1012.57 1012.69 1012.89 1013.05 1012.97 1013.09 1012.97 1012.93 1012.89 1013.21 1013.37 1013.33 1013.49 1013.41 1012.77 1012.65 1012.85 1013.05 1013.17 1013.33 1013.33 1013.29 1013.37 1013.57
1015.77 1015.53 1015.21 1014.89 1014.77 1014.77 1014.81 1014.69 1014.41 1014.25 1014.09 1013.97 1014.01 1013.85 1013.73 1013.53 1013.41 1013.21 1013.09 1012.97 1012.65 1012.45 1012.33 1012.09 1012.05 1012.17 1012.37 1012.53 1013.17 1013.17 1012.61 1012.13 1012.09 1012.33 1012.37 1012.45 1012.53 1012.57 1012.45 1012.49 1012.57 1012.61 1012.61 1012.73 1012.93 1012.93 1012.81 1012.81 1012.93 1012.73 1012.49 1012.53 1012.57 1012.61 1012.61 1012.85 1013.09 1013.21 1013.25 1013.33 1013.41 1013.45 1013.45
1016.17 1016.09 1015.89 1015.61 1015.25 1014.93 1014.85 1014.97 1014.81 1014.53 1014.33 1014.21 1014.09 1014.17 1014.09 1013.89 1013.73 1013.49 1013.29 1013.05 1012.93 1012.73 1012.57 1012.33 1012.29 1012.25 1012.25 1012.41 1013.37 1013.37 1012.97 1012.49 1012.33 1012.21 1012.29 1012.25 1012.29 1012.37 1012.45 1012.45 1012.45 1012.49 1012.49 1012.49 1012.49 1012.45 1012.37 1012.33 1012.33 1012.45 1012.41 1012.45 1012.53 1012.61 1012.73 1012.89 1012.93 1012.77 1012.81 1013.05 1013.25 1013.33 1013.49
1016.45 1016.37 1016.29 1016.13 1015.81 1015.33 1015.01 1014.85 1014.81 1014.69 1014.49 1014.33 1014.29 1014.25 1014.25 1014.13 1013.97 1013.69 1013.53 1013.29 1013.01 1012.89 1012.69 1012.57 1012.49 1012.41 1012.21 1012.13 1012.85 1013.53 1013.01 1012.65 1012.13 1011.93 1011.97 1012.01 1012.13 1012.21 1012.29 1012.33 1012.33 1012.45 1012.57 1012.45 1012.37 1012.25 1012.21 1012.21 1012.17 1012.25 1012.49 1012.45 1012.37 1012.41 1012.49 1012.65 1012.53 1012.49 1012.69 1012.81 1012.81 1013.01 1013.17
1016.81 1016.77 1016.53 1016.37 1016.05 1015.73 1015.29 1015.01 1014.85 1014.81 1014.69 1014.53 1014.41 1014.33 1014.29 1014.25 1014.05 1013.77 1013.53 1013.45 1013.17 1013.01 1012.73 1012.61 1012.69 1012.53 1012.17 1012.09 1011.81 1012.29 1012.69 1012.41 1011.93 1011.85 1011.89 1011.81 1011.77 1011.89 1012.21 1012.33 1012.29 1012.37 1012.41 1012.37 1012.29 1012.21 1012.09 1012.13 1012.13 1012.09 1012.09 1012.21 1012.09 1012.05 1012.05 1012.01 1011.89 1012.21 1012.61 1012.73 1012.81 1012.73 1012.77
1017.25 1017.21 1017.01 1016.73 1016.41 1016.01 1015.77 1015.45 1015.21 1015.01 1014.93 1014.69 1014.45 1014.29 1014.25 1014.21 1014.09 1013.93 1013.89 1013.49 1013.37 1012.89 1012.53 1012.49 1012.49 1012.37 1012.25 1011.81 1011.57 1011.49 1011.65 1011.61 1011.49 1011.57 1011.73 1011.73 1011.69 1011.57 1011.65 1011.81 1011.97 1012.13 1012.13 1012.09 1012.09 1011.93 1011.81 1012.01 1011.97 1011.89 1011.89 1011.77 1011.73 1011.73 1011.65 1011.69 1011.65 1012.01 1012.49 1012.69 1012.69 1012.69 1012.53
1017.69 1017.37 1017.25 1017.05 1016.77 1016.49 1016.17 1015.93 1015.57 1015.21 1014.81 1014.53 1014.37 1014.37 1014.21 1014.01 1013.97 1014.01 1013.81 1013.65 1013.25 1012.81 1012.61 1012.49 1012.37 1012.21 1012.05 1011.77 1011.57 1011.37 1011.29 1011.41 1011.53 1011.53 1011.41 1011.77 1011.85 1011.29 1011.29 1011.37 1011.49 1011.53 1011.57 1011.69 1011.49 1011.45 1011.57 1011.53 1011.53 1011.61 1011.53 1011.61 1011.65 1011.65 1011.41 1011.33 1011.45 1011.97 1012.41 1012.61 1012.69 1012.73 1012.77
1017.77 1017.61 1017.33 1017.05 1016.77 1016.49 1016.13 1015.85 1015.61 1015.17 1014.69 1014.29 1014.13 1014.17 1014.09 1013.89 1013.93 1013.69 1013.41 1013.33 1013.05 1012.97 1012.89 1012.65 1012.29 1012.05 1011.85 1011.61 1011.41 1011.13 1010.89 1010.93 1011.01 1011.17 1011.17 1011.09 1011.29 1011.33 1011.53 1011.33 1011.13 1011.05 1010.93 1010.97 1011.01 1011.13 1011.21 1011.09 1011.17 1011.17 1011.25 1011.29 1011.37 1011.45 1011.33 1011.29 1011.29 1011.73 1012.13 1012.37 1012.45 1012.53 1012.73
1017.57 1017.33 1017.21 1016.93 1016.73 1016.33 1016.05 1015.81 1015.57 1015.21 1014.73 1014.25 1014.05 1013.97 1014.01 1014.01 1013.81 1013.57 1013.41 1013.25 1013.25 1012.97 1012.77 1012.57 1012.49 1012.17 1011.77 1011.53 1011.21 1010.93 1010.77 1010.57 1010.69 1010.81 1010.85 1011.01 1011.25 1011.53 1011.57 1011.61 1010.85 1010.81 1010.73 1010.73 1010.77 1010.89 1010.89 1010.93 1010.93 1010.85 1010.81 1010.85 1010.89 1011.01 1011.01 1010.77 1010.89 1011.33 1011.65 1011.93 1012.13 1012.29 1012.53
1016.61 1016.61 1016.73 1016.49 1016.37 1016.09 1015.97 1015.77 1015.57 1015.29 1014.93 1014.37 1014.13 1013.97 1013.93 1014.09 1013.81 1013.73 1013.57 1013.13 1013.17 1013.05 1012.81 1012.53 1012.41 1012.25 1012.05 1011.65 1011.17 1010.93 1010.81 1010.93 1010.69 1010.29 1010.45 1010.73 1011.01 1011.25 1011.33 1011.25 1010.77 1010.57 1010.37 1010.37 1010.37 1010.25 1010.33 1010.45 1010.41 1010.53 1010.61 1010.53 1010.57 1010.69 1010.77 1010.45 1010.65 1011.01 1011.37 1011.61 1011.85 1012.05 1012.21
1016.05 1016.05 1015.97 1015.69 1015.45 1015.65 1015.49 1015.29 1015.17 1014.93 1014.69 1014.53 1014.37 1014.25 1014.01 1013.93 1013.89 1013.81 1013.65 1013.41 1013.21 1013.09 1012.85 1012.61 1012.49 1012.21 1011.85 1011.81 1011.29 1010.85 1010.61 1010.49 1010.61 1010.65 1010.29 1010.05 1010.41 1010.65 1010.81 1010.89 1010.81 1010.69 1010.05 1010.33 1010.25 1010.17 1010.09 1010.21 1010.25 1010.09 1010.17 1010.29 1010.33 1010.45 1010.41 1010.21 1010.29 1010.65 1010.97 1011.29 1011.53 1011.97 1011.93
1015.65 1015.57 1015.41 1015.41 1015.25 1015.05 1014.93 1014.85 1014.73 1014.57 1014.61 1014.61 1014.41 1014.13 1013.85 1013.81 1013.97 1013.97 1013.85 1013.65 1013.33 1013.17 1012.97 1012.73 1012.57 1012.09 1011.73 1011.49 1011.21 1010.97 1010.77 1010.77 1010.73 1010.85 1010.93 1010.49 1010.01 1010.13 1010.21 1010.13 1010.17 1010.25 1009.77 1010.01 1010.29 1010.09 1009.73 1009.61 1009.77 1009.73 1009.77 1009.93 1010.05 1010.01 1010.21 1010.05 1009.89 1010.29 1010.61 1010.93 1011.25 1011.45 1011.49
1016.01 1015.77 1015.65 1015.49 1015.41 1015.29 1015.05 1015.01 1014.97 1014.85 1014.57 1014.33 1014.33 1013.93 1013.81 1013.77 1013.89 1014.01 1014.01 1013.69 1013.45 1013.21 1013.05 1012.89 1012.53 1012.17 1011.85 1011.33 1010.97 1010.81 1010.85 1010.69 1010.61 1010.57 1010.45 1010.57 1010.61 1010.25 1010.05 1010.01 1009.97 1009.81 1009.97 1010.21 1009.73 1009.33 1009.17 1009.13 1009.37 1009.45 1009.41 1009.41 1009.53 1009.53 1009.77 1009.73 1009.65 1009.93 1010.29 1010.61 1010.89 1011.09 1010.97
1016.29 1016.05 1015.73 1015.37 1015.01 1015.01 1015.17 1015.09 1014.93 1014.73 1014.49 1014.37 1014.21 1013.85 1013.81 1013.77 1013.89 1014.01 1013.89 1013.69 1013.41 1013.29 1013.09 1012.81 1012.45 1012.01 1011.57 1011.13 1010.73 1010.53 1010.77 1010.81 1010.53 1010.29 1010.37 1010.29 1009.97 1009.85 1009.85 1009.57 1009.45 1009.73 1009.93 1009.69 1009.69 1009.17 1008.85 1008.93 1008.97 1009.21 1009.17 1009.13 1009.29 1009.37 1009.41 1009.53 1009.41 1009.41 1009.85 1010.13 1010.53 1010.77 1010.65
1016.05 1015.89 1015.89 1015.53 1015.33 1015.45 1015.21 1014.89 1014.81 1014.81 1014.61 1014.17 1013.97 1013.85 1013.77 1013.73 1013.85 1013.97 1013.73 1013.53 1013.41 1013.21 1012.85 1012.49 1012.13 1011.77 1011.45 1011.13 1010.69 1010.41 1010.33 1010.37 1010.25 1010.13 1010.01 1009.89 1009.89 1009.61 1009.41 1009.21 1009.09 1009.05 1009.17 1009.49 1009.21 1009.05 1008.85 1008.77 1008.89 1008.97 1008.97 1008.89 1008.93 1008.93 1009.01 1009.01 1009.17 1009.09 1009.41 1009.73 1010.09 1010.37 1010.53
1016.01 1015.93 1015.61 1015.45 1015.49 1015.41 1015.17 1014.97 1014.89 1014.73 1014.41 1014.09 1013.89 1013.73 1013.69 1013.73 1013.85 1013.73 1013.57 1013.45 1013.29 1012.85 1012.33 1012.21 1011.97 1011.65 1011.37 1011.05 1010.77 1010.33 1010.09 1010.17 1009.97 1009.89 1009.85 1009.61 1009.53 1009.53 1009.25 1008.81 1008.69 1008.57 1008.41 1008.45 1008.77 1008.73 1008.57 1008.49 1008.61 1008.81 1008.81 1008.69 1008.61 1008.61 1008.61 1008.49 1008.69 1008.73 1009.13 1009.45 1009.77 1009.97 1010.17
1016.49 1016.33 1016.13 1015.89 1015.53 1015.09 1015.13 1015.21 1015.05 1014.89 1014.69 1014.25 1013.97 1013.77 1013.57 1013.57 1013.69 1013.57 1013.33 1013.29 1012.89 1012.37 1012.13 1012.01 1011.77 1011.53 1011.25 1010.97 1010.69 1010.33 1010.01 1009.93 1010.01 1009.85 1009.65 1009.49 1009.37 1009.41 1009.33 1008.85 1008.61 1008.41 1008.29 1008.29 1008.13 1008.13 1008.29 1008.41 1008.53 1008.77 1008.89 1008.81 1008.61 1008.37 1008.29 1008.21 1008.25 1008.53 1008.73 1009.09 1009.33 1009.53 1009.73
1016.33 1016.13 1015.89 1015.45 1015.17 1015.05 1015.05 1015.21 1015.01 1014.93 1014.65 1014.29 1014.01 1013.73 1013.53 1013.49 1013.53 1013.33 1013.21 1012.97 1012.25 1012.13 1011.97 1011.81 1011.65 1011.37 1011.21 1010.93 1010.57 1010.21 1009.85 1009.73 1009.77 1009.65 1009.45 1009.41 1009.29 1009.17 1009.09 1008.85 1008.53 1008.29 1008.13 1008.01 1008.33 1008.77 1008.85 1008.41 1008.57 1008.89 1009.09 1009.13 1008.85 1008.25 1008.01 1007.85 1007.89 1008.05 1008.37 1008.61 1008.97 1009.21 1009.37
1016.37 1016.21 1015.97 1015.73 1015.49 1015.17 1015.13 1015.09 1015.09 1014.89 1014.61 1014.17 1013.85 1013.53 1013.41 1013.25 1013.29 1013.13 1013.01 1012.41 1012.01 1012.05 1011.89 1011.73 1011.53 1011.37 1011.21 1010.89 1010.53 1010.17 1009.77 1009.57 1009.53 1009.53 1009.37 1009.25 1009.25 1009.25 1009.01 1008.81 1008.45 1008.41 1008.09 1008.37 1008.45 1008.57 1008.93 1009.01 1009.57 1009.33 1009.09 1008.89 1009.05 1008.41 1007.89 1007.69 1007.69 1007.73 1008.01 1008.33 1008.61 1008.97 1009.21
1016.05 1015.89 1015.73 1015.53 1015.37 1015.21 1015.17 1014.93 1014.73 1014.61 1014.49 1014.05 1013.69 1013.45 1013.21 1013.01 1012.89 1013.01 1012.57 1012.01 1011.89 1011.73 1011.61 1011.49 1011.45 1011.33 1011.09 1010.73 1010.41 1010.05 1009.69 1009.53 1009.37 1009.25 1009.25 1009.17 1009.01 1008.89 1008.73 1008.65 1008.37 1008.21 1008.41 1008.73 1008.37 1008.21 1008.53 1008.45 1008.41 1008.25 1008.65 1008.49 1008.13 1008.05 1007.77 1007.53 1007.49 1007.57 1007.53 1007.89 1008.17 1008.49 1008.81
1016.01 1015.85 1015.77 1015.69 1015.37 1015.21 1015.09 1014.93 1014.81 1014.61 1014.37 1014.13 1013.61 1013.33 1013.09 1012.93 1012.65 1012.41 1012.05 1011.89 1011.61 1011.37 1011.29 1011.29 1011.25 1011.17 1010.85 1010.53 1010.17 1009.81 1009.57 1009.41 1009.25 1009.21 1009.09 1009.05 1008.85 1008.65 1008.45 1008.29 1008.21 1008.13 1007.93 1007.93 1008.13 1008.01 1007.77 1007.69 1007.65 1007.85 1007.89 1007.85 1007.89 1007.69 1007.61 1007.53 1007.41 1007.33 1007.29 1007.25 1007.53 1007.73 1007.97
1015.93 1015.73 1015.45 1015.25 1015.09 1015.01 1014.93 1014.89 1014.81 1014.53 1014.29 1014.01 1013.53 1013.21 1012.97 1012.77 1012.49 1012.09 1011.89 1011.65 1011.45 1011.25 1011.17 1011.17 1011.01 1010.81 1010.53 1010.25 1009.93 1009.69 1009.37 1009.13 1008.85 1008.93 1008.97 1008.77 1008.77 1008.73 1008.37 1008.01 1007.85 1007.93 1007.85 1007.81 1007.81 1007.97 1007.69 1007.45 1007.37 1007.45 1007.41 1007.37 1007.25 1007.41 1007.49 1007.33 1007.17 1007.09 1007.09 1007.05 1007.09 1007.13 1007.09
1015.85 1015.69 1015.41 1015.25 1015.05 1014.93 1014.85 1014.65 1014.53 1014.41 1014.17 1013.85 1013.33 1013.01 1012.77 1012.53 1012.21 1011.85 1011.65 1011.45 1011.25 1011.13 1011.17 1011.09 1010.85 1010.61 1010.33 1009.97 1009.69 1009.41 1009.09 1008.85 1008.61 1008.37 1008.45 1008.45 1008.29 1008.09 1008.09 1008.05 1007.81 1007.65 1007.41 1007.01 1006.93 1007.09 1007.37 1007.37 1007.29 1007.13 1006.85 1006.81 1006.77 1006.97 1007.09 1006.85 1006.77 1006.41 1006.05 1006.25 1006.37 1006.61 1006.89
1015.69 1015.45 1015.17 1014.81 1014.57 1014.41 1014.33 1014.21 1014.09 1013.93 1013.77 1013.49 1013.13 1012.89 1012.65 1012.41 1012.09 1011.77 1011.37 1011.17 1011.01 1010.97 1011.05 1010.85 1010.65 1010.41 1010.17 1009.77 1009.41 1009.09 1008.73 1008.53 1008.25 1008.01 1007.97 1008.17 1008.17 1008.01 1007.69 1007.21 1007.25 1007.29 1007.45 1007.21 1006.77 1006.77 1006.81 1007.09 1007.17 1006.85 1007.13 1007.17 1006.41 1006.17 1006.49 1006.49 1006.17 1006.05 1006.01 1006.09 1006.21 1006.37 1006.49
1015.57 1015.29 1015.13 1014.69 1014.49 1014.25 1014.09 1013.93 1013.81 1013.69 1013.57 1013.25 1012.89 1012.69 1012.49 1012.21 1011.85 1011.65 1011.33 1011.05 1010.81 1010.73 1010.69 1010.57 1010.49 1010.21 1009.85 1009.53 1009.13 1008.73 1008.45 1008.25 1008.13 1007.89 1007.73 1007.65 1007.73 1007.69 1007.61 1007.33 1006.97 1006.97 1007.01 1006.97 1006.85 1006.81 1006.89 1006.89 1006.89 1006.89 1006.89 1007.09 1006.89 1006.17 1005.93 1005.89 1006.01 1006.21 1006.49 1006.65 1006.69 1006.69 1006.77
1015.37 1015.13 1014.85 1014.45 1014.25 1014.05 1014.01 1013.93 1013.81 1013.61 1013.41 1012.97 1012.69 1012.41 1012.09 1011.89 1011.53 1011.21 1010.97 1010.77 1010.57 1010.41 1010.37 1010.29 1010.21 1010.05 1009.69 1009.29 1008.89 1008.57 1008.41 1008.17 1007.97 1007.77 1007.65 1007.45 1007.25 1007.29 1007.33 1007.29 1007.17 1006.81 1006.61 1006.65 1006.57 1006.61 1006.65 1006.69 1006.65 1006.69 1006.69 1006.73 1006.85 1006.69 1006.21 1005.93 1005.97 1006.17 1006.45 1006.61 1006.73 1006.81 1006.97
Thickness
5825 5822 5820 5817 5815 5813 5811 5810 5809 5808 5807 5806 5805 5805 5805 5804 5803 5801 5799 5800 5798 5796 5794 5789 5785 5781 5778 5776 5775 5771 5767 5766 5765 5763 5760 5759 5758 5757 5755 5754 5757 5758 5760 5764 5766 5767 5768 5767 5769 5773 5775 5775 5775 5775 5774 5774 5775 5776 5775 5776 5776 5776 5776
5822 5819 5817 5816 5813 5811 5810 5810 5809 5807 5806 5805 5805 5804 5804 5804 5802 5801 5801 5801 5799 5795 5791 5786 5782 5778 5777 5776 5774 5770 5766 5765 5766 5764 5762 5759 5756 5755 5754 5756 5759 5761 5762 5764 5765 5766 5766 5765 5768 5771 5774 5775 5775 5775 5774 5774 5775 5775 5775 5775 5774 5774 5774
5817 5815 5814 5813 5812 5809 5809 5809 5808 5807 5806 5805 5804 5804 5803 5803 5802 5802 5802 5800 5796 5791 5787 5783 5780 5777 5775 5774 5771 5769 5766 5764 5763 5762 5760 5758 5757 5758 5758 5759 5762 5762 5762 5763 5764 5764 5763 5764 5768 5772 5774 5775 5775 5775 5775 5775 5775 5775 5775 5774 5774 5774 5772
5811 5813 5813 5811 5811 5810 5808 5808 5806 5806 5805 5805 5804 5803 5802 5801 5801 5802 5801 5799 5794 5788 5784 5780 5777 5776 5774 5771 5768 5765 5763 5761 5760 5759 5759 5759 5759 5761 5762 5761 5760 5759 5761 5764 5766 5766 5765 5763 5765 5768 5771 5773 5774 5774 5774 5774 5774 5774 5774 5773 5773 5774 5773
5808 5810 5810 5809 5810 5808 5807 5807 5805 5805 5804 5803 5803 5802 5801 5799 5798 5800 5800 5798 5793 5788 5784 5780 5777 5775 5772 5770 5766 5763 5761 5758 5757 5757 5757 5758 5760 5762 5762 5759 5758 5759 5762 5764 5765 5765 5767 5766 5764 5763 5767 5771 5772 5773 5773 5773 5773 5773 5772 5772 5772 5772 5773
5803 5804 5804 5806 5807 5805 5804 5804 5803 5803 5802 5801 5800 5800 5800 5797 5796 5796 5797 5796 5792 5789 5785 5780 5778 5775 5772 5770 5766 5763 5760 5757 5757 5756 5756 5757 5759 5761 5760 5759 5760 5761 5761 5763 5764 5766 5768 5767 5764 5762 5764 5769 5771 5772 5773 5772 5773 5773 5771 5770 5771 5772 5773
5797 5799 5801 5804 5806 5803 5801 5800 5801 5801 5800 5799 5798 5797 5797 5795 5794 5794 5795 5796 5793 5788 5784 5779 5777 5774 5771 5769 5766 5763 5761 5760 5759 5758 5758 5758 5758 5758 5760 5761 5763 5762 5762 5764 5765 5767 5768 5766 5763 5761 5760 5765 5770 5771 5772 5772 5772 5772 5771 5769 5769 5771 5772
5793 5795 5798 5802 5804 5801 5798 5797 5797 5797 5796 5795 5793 5792 5792 5792 5793 5794 5794 5796 5794 5790 5785 5780 5777 5773 5769 5766 5762 5761 5762 5763 5764 5763 5762 5761 5758 5757 5758 5761 5763 5763 5763 5764 5765 5767 5767 5765 5764 5761 5759 5764 5768 5770 5770 5770 5770 5772 5772 5770 5768 5770 5772
5789 5790 5792 5797 5799 5797 5794 5792 5792 5792 5791 5789 5787 5786 5786 5787 5789 5792 5793 5796 5795 5791 5787 5784 5781 5776 5771 5766 5761 5760 5762 5764 5767 5767 5765 5764 5761 5759 5759 5759 5762 5763 5762 5763 5764 5765 5765 5765 5765 5763 5762 5764 5766 5767 5767 5768 5768 5769 5770 5770 5768 5769 5771
5784 5784 5785 5789 5790 5790 5789 5786 5787 5786 5784 5783 5781 5781 5782 5782 5784 5787 5790 5793 5794 5793 5790 5788 5785 5779 5773 5768 5763 5761 5764 5766 5766 5763 5761 5761 5762 5762 5760 5758 5759 5760 5761 5761 5762 5763 5763 5764 5764 5761 5761 5763 5764 5764 5765 5766 5767 5767 5769 5769 5769 5769 5770
5777 5778 5779 5781 5781 5783 5782 5780 5781 5780 5779 5779 5777 5777 5778 5778 5780 5781 5784 5787 5789 5791 5790 5788 5785 5781 5775 5770 5765 5763 5766 5769 5765 5758 5755 5758 5762 5763 5762 5759 5757 5757 5758 5758 5759 5760 5761 5761 5761 5758 5757 5759 5762 5764 5765 5765 5767 5768 5768 5770 5771 5770 5770
5771 5773 5773 5774 5775 5776 5775 5775 5776 5776 5776 5775 5774 5774 5774 5774 5777 5778 5778 5781 5783 5785 5786 5785 5783 5779 5774 5770 5766 5765 5769 5772 5768 5760 5757 5758 5760 5762 5761 5759 5757 5755 5754 5755 5755 5757 5758 5758 5757 5755 5755 5755 5758 5764 5767 5767 5768 5768 5769 5771 5772 5772 5771
5768 5769 5769 5770 5771 5771 5770 5770 5771 5772 5773 5771 5771 5771 5771 5772 5774 5774 5774 5775 5777 5779 5780 5780 5779 5776 5773 5769 5766 5767 5771 5774 5772 5767 5763 5761 5761 5760 5759 5758 5756 5755 5753 5753 5753 5754 5756 5756 5755 5754 5756 5756 5757 5763 5766 5767 5766 5766 5766 5767 5769 5769 5769
5762 5763 5764 5767 5767 5766 5765 5765 5765 5767 5768 5768 5767 5766 5767 5768 5768 5770 5771 5770 5772 5773 5774 5776 5775 5772 5769 5766 5762 5764 5770 5774 5773 5769 5766 5764 5763 5760 5758 5757 5756 5756 5756 5754 5753 5753 5755 5756 5755 5756 5758 5759 5760 5762 5764 5762 5761 5762 5762 5763 5764 5764 5765
5756 5756 5757 5758 5760 5761 5761 5759 5760 5761 5761 5763 5763 5761 5762 5762 5763 5764 5766 5766 5768 5768 5768 5771 5771 5769 5768 5764 5758 5758 5765 5769 5769 5767 5765 5763 5763 5760 5759 5757 5757 5757 5757 5757 5756 5756 5756 5757 5758 5758 5759 5760 5761 5761 5760 5759 5760 5762 5762 5762 5762 5762 5762
5750 5750 5750 5751 5753 5755 5756 5757 5756 5756 5756 5757 5758 5757 5756 5756 5757 5759 5760 5762 5763 5764 5765 5766 5765 5765 5766 5763 5758 5756 5758 5762 5765 5766 5764 5763 5763 5761 5759 5758 5758 5756 5756 5756 5757 5758 5758 5758 5758 5758 5758 5759 5761 5761 5761 5761 5763 5763 5762 5762 5762 5762 5762
5743 5743 5744 5745 5746 5748 5750 5752 5751 5751 5751 5751 5752 5754 5752 5751 5753 5754 5755 5757 5759 5761 5762 5762 5762 5762 5763 5763 5761 5758 5758 5761 5764 5764 5762 5762 5763 5762 5760 5758 5758 5757 5756 5756 5756 5757 5758 5757 5758 5758 5759 5760 5761 5763 5763 5764 5766 5764 5761 5761 5762 5763 5763
5735 5735 5736 5737 5739 5741 5742 5743 5744 5745 5746 5746 5748 5748 5748 5748 5748 5748 5750 5752 5754 5758 5760 5760 5760 5760 5761 5762 5763 5761 5760 5762 5764 5763 5761 5760 5761 5762 5761 5759 5758 5757 5756 5756 5757 5758 5758 5758 5758 5759 5759 5761 5761 5762 5764 5765 5765 5763 5759 5759 5759 5760 5761
5727 5727 5729 5730 5731 5734 5735 5736 5738 5739 5741 5744 5745 5744 5744 5745 5743 5743 5745 5747 5750 5754 5755 5757 5758 5758 5759 5760 5761 5761 5761 5761 5762 5762 5761 5759 5758 5759 5760 5760 5759 5758 5758 5758 5759 5759 5759 5759 5760 5760 5760 5760 5760 5761 5762 5764 5763 5760 5757 5755 5756 5756 5757
5720 5722 5724 5725 5726 5728 5730 5731 5733 5734 5738 5741 5742 5741 5742 5741 5741 5741 5742 5743 5745 5748 5749 5751 5754 5755 5757 5759 5759 5761 5762 5761 5761 5761 5761 5759 5758 5757 5756 5756 5758 5759 5759 5760 5760 5759 5759 5760 5760 5760 5760 5760 5760 5760 5761 5762 5762 5759 5756 5754 5755 5754 5754
5719 5719 5720 5720 5722 5724 5726 5728 5728 5730 5734 5737 5739 5739 5738 5737 5737 5738 5738 5739 5740 5741 5744 5745 5747 5750 5753 5755 5757 5759 5760 5760 5759 5759 5759 5757 5755 5755 5754 5754 5757 5759 5760 5760 5760 5759 5760 5760 5760 5760 5760 5760 5760 5759 5760 5762 5762 5759 5756 5755 5754 5753 5752
5719 5718 5718 5719 5721 5721 5722 5724 5724 5726 5729 5732 5734 5734 5734 5733 5733 5733 5734 5735 5735 5736 5738 5740 5742 5744 5747 5750 5754 5756 5756 5756 5756 5756 5757 5757 5755 5754 5753 5753 5755 5758 5759 5759 5759 5760 5760 5760 5760 5760 5760 5760 5760 5759 5759 5761 5761 5758 5756 5755 5753 5752 5752
5718 5717 5718 5719 5719 5719 5720 5721 5722 5724 5725 5726 5727 5728 5729 5729 5728 5727 5728 5730 5731 5731 5732 5733 5735 5738 5741 5744 5748 5752 5752 5752 5751 5751 5752 5755 5755 5754 5753 5753 5752 5754 5757 5757 5757 5758 5759 5759 5760 5760 5760 5759 5759 5758 5758 5760 5760 5758 5756 5754 5752 5751 5751
5716 5715 5715 5715 5715 5716 5717 5718 5719 5719 5720 5721 5721 5723 5724 5724 5722 5722 5721 5723 5725 5726 5727 5727 5728 5732 5736 5739 5742 5746 5747 5746 5745 5743 5744 5748 5750 5750 5752 5753 5751 5751 5755 5754 5754 5757 5759 5760 5760 5760 5760 5760 5759 5758 5757 5759 5760 5758 5756 5754 5752 5751 5752
5708 5709 5709 5709 5709 5709 5710 5711 5711 5712 5714 5716 5716 5718 5719 5718 5716 5715 5715 5717 5719 5719 5721 5722 5723 5726 5730 5734 5738 5741 5740 5739 5739 5740 5741 5743 5745 5747 5749 5750 5750 5751 5751 5750 5751 5755 5758 5760 5759 5759 5760 5760 5759 5759 5757 5757 5759 5758 5755 5753 5752 5752 5753
5699 5699 5701 5703 5704 5703 5703 5703 5704 5706 5707 5709 5710 5712 5712 5711 5710 5708 5709 5711 5713 5713 5715 5717 5719 5722 5725 5729 5734 5736 5734 5734 5735 5737 5739 5740 5742 5744 5746 5748 5750 5749 5747 5746 5748 5752 5756 5757 5757 5756 5758 5758 5758 5759 5758 5757 5758 5758 5756 5754 5752 5751 5752
5692 5693 5693 5695 5695 5694 5695 5697 5698 5699 5700 5702 5704 5705 5706 5705 5703 5702 5703 5705 5705 5707 5710 5713 5715 5718 5721 5723 5727 5730 5730 5732 5733 5734 5735 5736 5738 5741 5744 5747 5748 5748 5748 5747 5747 5749 5751 5753 5754 5754 5754 5756 5756 5757 5758 5757 5757 5757 5756 5753 5751 5750 5750
5686 5685 5686 5687 5686 5687 5688 5689 5690 5691 5693 5696 5697 5698 5699 5698 5696 5696 5697 5698 5699 5702 5706 5708 5709 5712 5715 5717 5721 5724 5725 5727 5729 5730 5732 5734 5736 5737 5740 5744 5745 5747 5748 5748 5748 5749 5749 5750 5750 5750 5750 5752 5754 5754 5756 5757 5757 5757 5755 5752 5750 5749 5748
5679 5679 5680 5680 5680 5681 5681 5680 5681 5683 5684 5686 5688 5690 5691 5690 5689 5691 5691 5691 5694 5698 5700 5702 5703 5706 5708 5711 5714 5718 5720 5720 5723 5726 5727 5729 5731 5733 5735 5739 5741 5743 5745 5746 5747 5748 5747 5746 5745 5744 5744 5746 5748 5752 5754 5755 5755 5755 5753 5751 5749 5748 5747
5673 5672 5674 5675 5676 5677 5675 5673 5674 5675 5677 5679 5681 5682 5683 5683 5683 5685 5685 5686 5690 5692 5692 5695 5697 5698 5701 5704 5708 5712 5714 5715 5717 5720 5722 5724 5726 5728 5730 5734 5737 5739 5742 5742 5742 5739 5738 5739 5738 5737 5738 5739 5742 5747 5751 5752 5754 5753 5752 5750 5748 5747 5746
5668 5667 5668 5669 5669 5669 5669 5668 5668 5669 5670 5673 5675 5676 5677 5677 5676 5677 5679 5683 5685 5685 5685 5687 5689 5691 5693 5697 5701 5705 5709 5710 5712 5714 5717 5718 5719 5722 5725 5727 5731 5735 5736 5735 5734 5732 5732 5732 5731 5731 5733 5735 5736 5740 5746 5749 5750 5751 5749 5748 5746 5744 5743
5664 5664 5663 5662 5662 5662 5663 5663 5664 5664 5666 5668 5670 5670 5671 5672 5671 5672 5674 5678 5679 5679 5680 5681 5682 5684 5687 5690 5695 5700 5703 5704 5706 5708 5711 5713 5714 5717 5721 5723 5726 5729 5729 5728 5728 5729 5730 5730 5730 5730 5731 5733 5734 5737 5741 5744 5745 5746 5747 5746 5745 5744 5742
5660 5660 5659 5658 5658 5658 5657 5657 5658 5659 5660 5662 5664 5666 5666 5666 5667 5668 5670 5673 5675 5675 5676 5676 5676 5678 5681 5684 5689 5693 5697 5699 5700 5702 5704 5707 5709 5712 5716 5719 5722 5724 5725 5724 5724 5726 5728 5730 5731 5731 5730 5731 5733 5735 5737 5739 5740 5742 5743 5744 5743 5743 5742
5655 5655 5655 5655 5654 5653 5652 5652 5652 5653 5654 5656 5659 5660 5661 5661 5662 5664 5666 5667 5668 5670 5670 5670 5671 5674 5676 5679 5683 5687 5691 5694 5695 5697 5698 5702 5704 5707 5709 5714 5717 5719 5721 5722 5722 5722 5724 5727 5728 5729 5729 5731 5733 5732 5733 5736 5738 5739 5741 5742 5742 5742 5742
5650 5650 5650 5651 5651 5650 5649 5648 5649 5649 5649 5651 5654 5656 5657 5658 5659 5660 5661 5662 5663 5664 5664 5664 5667 5669 5671 5674 5677 5681 5685 5689 5692 5694 5695 5697 5700 5703 5706 5710 5713 5714 5717 5721 5722 5721 5721 5722 5724 5725 5726 5728 5731 5732 5731 5733 5736 5740 5741 5742 5741 5740 5740
5646 5646 5648 5648 5649 5648 5648 5647 5647 5647 5647 5649 5651 5652 5652 5653 5655 5656 5657 5659 5659 5659 5658 5660 5662 5664 5666 5669 5672 5676 5680 5684 5687 5690 5691 5692 5695 5698 5702 5707 5710 5711 5712 5715 5718 5719 5719 5719 5720 5721 5721 5722 5727 5731 5732 5732 5735 5737 5737 5737 5737 5736 5736
5643 5643 5644 5645 5646 5646 5646 5645 5644 5644 5645 5646 5647 5648 5649 5650 5651 5652 5653 5654 5654 5654 5654 5655 5656 5658 5661 5664 5667 5670 5674 5678 5681 5685 5687 5689 5691 5694 5697 5701 5704 5707 5709 5711 5712 5714 5715 5715 5716 5717 5717 5717 5720 5725 5729 5731 5731 5730 5728 5728 5729 5729 5729
5639 5639 5641 5642 5643 5643 5642 5641 5641 5640 5642 5643 5643 5645 5646 5647 5648 5649 5649 5650 5651 5651 5651 5652 5652 5654 5656 5659 5662 5665 5668 5672 5676 5679 5682 5685 5688 5690 5693 5695 5698 5702 5705 5708 5708 5709 5711 5712 5713 5713 5714 5714 5715 5718 5721 5725 5725 5723 5722 5722 5722 5721 5721